Location: Unspecified
(35.6961°N, 0.0000°E)
Time: 03:12:58
(UTC+00:00)

Altair - Pass Details

Date: 27 May 2019
Orbit: 1501 x 1683 km, 47.2° (Epoch: 16 June)

Event Time Altitude Azimuth Distance (km) Brightness Sun altitude
Rises 12:02:35 0° 286° (WNW) 4,875 10.1 75.6°
Reaches altitude 10° 12:08:51 10° 257° (WSW) 3,839 9.8 75.4°
Maximum altitude 12:11:41 12° 240° (WSW) 3,689 9.8 75.3°
Drops below altitude 10° 12:14:30 10° 222° (SW) 3,790 9.9 75.1°
Sets 12:20:38 0° 193° (SSW) 4,721 10.3 74.7°
